Location: Praha
(50.0830°N, 14.4670°E)
Time: 04:54:14
(UTC+01:00)

ISS - Pass Details

Date: 28 February 2021
Orbit: 417 x 422 km, 51.6° (Epoch: 03 March)

Event Time Altitude Azimuth Distance (km) Brightness Sun altitude
Exits shadow 05:39:28 20° 272° (W) 1,048 -2.4 -11.7°
Maximum altitude 05:41:41 69° 352° (N) 452 -3.7 -11.3°
Drops below altitude 10° 05:45:02 10° 77° (ENE) 1,500 0.5 -10.8°
Sets 05:47:09 0° 80° (E) 2,365 2.1 -10.4°
